Date String (YYYY-MM-DD hh:mm:ss) UTC,Instrument flags,Ambient pressure (hPa),Sample flow (lpm),Bypass flow (lpm),Sample temperature (°C),Ambient temperature (°C),ASC tube jacket temperature (°C),LED temperature (°C),Box temperature (°C),Sample RH (%),Span deviation,Mass concentration (μg/m³),Mass concentration (μg/m³),Mass concentration (μg/m³)
DateTimeUTC,F1_M11,P_M11,Q1_M11,Q2_M11,T1_M11,T2_M11,T3_M11,T4_M11,T5_M11,U1_M11,ZSPAN_M11,X2_M11,X0_M11,X1_M11
2021-12-22 23:00:00,,0820.2,5.01,0.00,28.1,27.2,00.0,37.0,29.9,03.7,0000.0,0000.44,0002.86,0000.33
2021-12-22 23:01:00,,0820.2,4.99,0.00,28.1,27.3,00.0,37.0,29.9,03.7,0000.0,0000.43,0002.81,0000.33
2021-12-22 23:02:00,,0820.2,5.00,0.00,28.2,27.3,00.0,37.0,29.9,03.7,0000.0,0000.43,0001.72,0000.33
2021-12-22 23:03:00,,0820.2,5.01,0.00,28.1,27.3,00.0,37.0,29.9,03.6,0000.0,0000.44,0001.03,0000.33
2021-12-22 23:04:00,,0820.0,4.99,0.00,28.1,27.3,00.0,37.0,29.9,03.7,0000.0,0000.45,0000.90,0000.33
2021-12-22 23:05:00,,0820.2,5.00,0.00,28.1,27.3,00.0,37.0,29.8,03.8,0000.0,0000.42,0000.72,0000.32
2021-12-22 23:06:00,,0820.2,4.99,0.00,28.1,27.3,00.0,37.0,29.8,03.9,0000.0,0000.41,0000.84,0000.32
2021-12-22 23:07:00,,0820.2,5.00,0.00,28.1,27.3,00.0,37.0,29.8,04.0,0000.0,0000.39,0000.82,0000.31
2021-12-22 23:08:00,,0820.2,5.00,0.00,28.2,27.3,00.0,37.1,29.9,03.9,0000.0,0000.39,0000.86,0000.30
2021-12-22 23:09:00,,0820.2,5.00,0.00,28.2,27.2,00.0,37.1,29.9,03.9,0000.0,0000.40,0001.68,0000.31
2021-12-22 23:10:00,,0820.2,5.00,0.00,28.2,27.2,00.0,37.1,29.8,04.2,0000.0,0000.42,0001.74,0000.31
2021-12-22 23:11:00,,0820.2,5.00,0.00,28.2,27.2,00.0,37.1,29.8,04.1,0000.0,0000.43,0001.78,0000.31
2021-12-22 23:12:00,,0820.2,5.01,0.00,28.2,27.2,00.0,37.1,29.9,04.0,0000.0,0000.44,0001.92,0000.31
2021-12-22 23:13:00,,0820.3,4.99,0.00,28.2,27.2,00.0,37.1,29.9,04.0,0000.0,0000.46,0001.96,0000.30
2021-12-22 23:14:00,,0820.3,4.99,0.00,28.2,27.2,00.0,37.1,29.9,04.0,0000.0,0000.45,0001.94,0000.30
2021-12-22 23:15:00,,0820.4,5.00,0.00,28.2,27.2,00.0,37.1,29.9,04.0,0000.0,0000.44,0001.91,0000.29
2021-12-22 23:16:00,,0820.4,5.00,0.00,28.2,27.2,00.0,37.1,29.8,03.9,0000.0,0000.43,0001.76,0000.30
2021-12-22 23:17:00,,0820.2,4.99,0.00,28.2,27.1,00.0,37.1,29.8,03.9,0000.0,0000.41,0001.61,0000.29
2021-12-22 23:18:00,,0820.3,5.00,0.00,28.2,27.1,00.0,37.1,29.8,04.0,0000.0,0000.41,0001.61,0000.30
2021-12-22 23:19:00,,0820.3,5.01,0.00,28.2,27.1,00.0,37.1,29.8,04.0,0000.0,0000.42,0001.57,0000.30
2021-12-22 23:20:00,,0820.2,4.99,0.00,28.2,27.1,00.0,37.1,29.8,04.0,0000.0,0000.40,0000.71,0000.30
2021-12-22 23:21:00,,0820.3,5.01,0.00,28.2,27.1,00.0,37.1,29.7,04.0,0000.0,0000.38,0000.65,0000.30
2021-12-22 23:22:00,,0820.2,4.99,0.00,28.2,27.1,00.0,37.1,29.7,04.0,0000.0,0000.38,0000.63,0000.30
2021-12-22 23:23:00,,0820.2,4.99,0.00,28.2,27.1,00.0,37.1,29.7,04.2,0000.0,0000.38,0000.52,0000.31
2021-12-22 23:24:00,,0820.2,5.00,0.00,28.2,27.1,00.0,37.1,29.8,04.7,0000.0,0000.35,0000.48,0000.30
2021-12-22 23:25:00,,0820.3,5.01,0.00,28.1,27.1,00.0,37.1,29.7,04.4,0000.0,0000.34,0000.45,0000.30
2021-12-22 23:26:00,,0820.2,4.99,0.00,28.1,27.1,00.0,37.1,29.7,04.2,0000.0,0000.35,0000.44,0000.31
2021-12-22 23:27:00,,0820.3,5.02,0.00,28.1,27.1,00.0,37.1,29.8,04.2,0000.0,0000.36,0000.47,0000.31
2021-12-22 23:28:00,,0820.3,4.99,0.00,28.1,27.1,00.0,37.1,29.8,04.1,0000.0,0000.37,0000.49,0000.31
2021-12-22 23:29:00,,0820.3,5.01,0.00,28.1,27.1,00.0,37.1,29.8,04.0,0000.0,0000.41,0000.61,0000.31
2021-12-22 23:30:00,,0820.2,5.01,0.00,28.1,27.0,00.0,37.1,29.8,04.0,0000.0,0000.42,0000.62,0000.31
2021-12-22 23:31:00,,0820.3,5.00,0.00,28.1,27.1,00.0,37.1,29.8,04.1,0000.0,0000.42,0000.63,0000.31
2021-12-22 23:32:00,,0820.2,4.99,0.00,28.1,27.1,00.0,37.1,29.8,04.1,0000.0,0000.45,0000.73,0000.31
2021-12-22 23:33:00,,0820.2,5.01,0.00,28.1,27.1,00.0,37.1,29.8,04.1,0000.0,0000.45,0000.76,0000.31
2021-12-22 23:34:00,,0820.3,4.99,0.00,28.1,27.1,00.0,37.1,29.8,04.5,0000.0,0000.43,0000.90,0000.30
2021-12-22 23:35:00,,0820.4,5.01,0.00,28.1,27.1,00.0,37.1,29.8,04.5,0000.0,0000.43,0000.90,0000.30
2021-12-22 23:36:00,,0820.5,4.99,0.00,28.1,27.1,00.0,37.1,29.8,04.4,0000.0,0000.44,0000.95,0000.30
2021-12-22 23:37:00,,0820.3,5.00,0.00,28.1,27.1,00.0,37.1,29.8,04.4,0000.0,0000.43,0001.30,0000.30
2021-12-22 23:38:00,,0820.2,5.00,0.00,28.1,27.1,00.0,37.1,29.8,04.3,0000.0,0000.42,0001.30,0000.30
2021-12-22 23:39:00,,0820.2,4.99,0.00,28.1,27.1,00.0,37.1,29.8,04.3,0000.0,0000.42,0001.33,0000.29
2021-12-22 23:40:00,,0820.2,4.99,0.00,28.1,27.1,00.0,37.1,29.8,04.2,0000.0,0000.39,0001.23,0000.29
2021-12-22 23:41:00,,0820.2,5.00,0.00,28.1,27.1,00.0,37.1,29.8,04.2,0000.0,0000.37,0001.24,0000.30
2021-12-22 23:42:00,,0820.2,5.01,0.00,28.1,27.1,00.0,37.1,29.8,04.2,0000.0,0000.38,0001.62,0000.29
2021-12-22 23:43:00,,0820.4,4.98,0.00,28.1,27.2,00.0,37.1,29.8,04.3,0000.0,0000.38,0001.57,0000.30
2021-12-22 23:44:00,,0820.3,5.02,0.00,28.1,27.2,00.0,37.1,29.8,04.4,0000.0,0000.37,0001.52,0000.29
2021-12-22 23:45:00,,0820.2,5.00,0.00,28.2,27.2,00.0,37.1,29.8,04.5,0000.0,0000.38,0001.35,0000.30
2021-12-22 23:46:00,,0820.3,4.99,0.00,28.2,27.2,00.0,37.1,29.8,04.4,0000.0,0000.38,0001.37,0000.29
2021-12-22 23:47:00,,0820.3,5.01,0.00,28.1,27.2,00.0,37.1,29.8,05.0,0000.0,0000.39,0001.35,0000.29
2021-12-22 23:48:00,,0820.4,5.00,0.00,28.1,27.2,00.0,37.1,29.7,04.8,0000.0,0000.41,0001.05,0000.29
2021-12-22 23:49:00,,0820.5,5.00,0.00,28.1,27.2,00.0,37.1,29.7,04.6,0000.0,0000.41,0001.03,0000.29
2021-12-22 23:50:00,,0820.3,5.01,0.00,28.1,27.1,00.0,37.1,29.8,04.5,0000.0,0000.40,0001.00,0000.29
2021-12-22 23:51:00,,0820.3,5.00,0.00,28.1,27.2,00.0,37.1,29.8,04.4,0000.0,0000.40,0001.00,0000.29
2021-12-22 23:52:00,,0820.2,5.00,0.00,28.1,27.2,00.0,37.1,29.8,04.3,0000.0,0000.40,0001.00,0000.29
2021-12-22 23:53:00,,0820.2,4.99,0.00,28.1,27.2,00.0,37.1,29.8,04.4,0000.0,0000.39,0000.60,0000.28
2021-12-22 23:54:00,,0820.2,5.01,0.00,28.1,27.2,00.0,37.1,29.8,05.3,0000.0,0000.37,0000.58,0000.28
2021-12-22 23:55:00,,0820.3,4.98,0.00,28.1,27.2,00.0,37.1,29.8,05.3,0000.0,0000.38,0000.58,0000.27
2021-12-22 23:56:00,,0820.3,5.00,0.00,28.1,27.2,00.0,37.1,29.8,04.6,0000.0,0000.38,0000.57,0000.27
2021-12-22 23:57:00,,0820.2,5.00,0.00,28.1,27.2,00.0,37.1,29.8,04.5,0000.0,0000.39,0000.57,0000.27
2021-12-22 23:58:00,,0820.3,5.00,0.00,28.1,27.2,00.0,37.1,29.8,04.6,0000.0,0000.39,0000.65,0000.27
2021-12-22 23:59:00,,0820.4,5.01,0.00,28.1,27.2,00.0,37.1,29.8,04.7,0000.0,0000.36,0001.15,0000.27
